Regional Weather Roundup
Issued by NWS Goodland, KS

Home | Current Version | Previous Version | Graphics & Text | Print | Product List | Glossary On
Versions: 1 2 3 4 5 6 7 8 9 10 11 12 13 14 15 16 17 18 19 20 21 22 23 24 25 26 27 28 29 30 31 32 33 34 35 36 37 38 39 40 41 42 43 44 45 46 47 48 49 50
000
ASUS43 KGLD 192208
RWRGLD

GOODLAND FORECAST AREA HOURLY WEATHER ROUNDUP
NATIONAL WEATHER SERVICE GOODLAND KS
300 PM MST SUN NOV 19 2017

...OFFICIAL OBSERVATIONS...

CITY           SKY/WX    TMP DP  RH WIND       PRES   REMARKS
GOODLAND KS    CLOUDY    61  11  14 SW13      29.99F
HILL CITY KS   CLOUDY    58  24  27 SW8       30.01F
IMPERIAL NEB   CLOUDY    59  18  20 SW9       29.97F
MCCOOK NEB     SUNNY     60  21  22 SW12      29.97F
AKRON CO       SUNNY     59   8  13 W5        29.98F
BURLINGTON CO  SUNNY     61  12  14 SW10      30.01F
LIMON CO       SUNNY     58   3  11 S10       30.02F
$$

...UNOFFICIAL OBSERVATIONS...

CITY           SKY/WX    TMP DP  RH WIND       PRES   REMARKS
COLBY KS       CLOUDY    57  28  33 S7        30.01F
LENORA KS        N/A     55  32  41 S7          N/A
NORTON KS      SUNNY     57  14  18 S8        29.98
SHARON SPRINGS   N/A     61  17  18 S12         N/A
TRENTON NEB      N/A     58  32  37 W5          N/A
KIT CARSON CO    N/A     60  19  20 MISG        N/A
YUMA CO        FAIR      59   9  13 W6        29.97F
$$




USA.gov is the U.S. government's official web portal to all federal, state and local government web resources and services.